| time (UTC) | temp F | wind direction | speed knots | gust knots | rain 1hr in | rain 24hr in | rain mn in | humidity % | barometer mb |
| 20260510210640 | 60 | 158 | 4.3 | 4.3 | 0.00 | 0.02 | 0.02 | 61 | 1016.4 |
| 20260510204640 | 60 | 112 | 5.2 | 5.2 | 0.00 | 0.02 | 0.02 | 62 | 1016.3 |
| 20260510202641 | 60 | 248 | 1.7 | 1.7 | 0.00 | 0.02 | 0.02 | 68 | 1016.1 |
| 20260510201641 | 60 | 248 | 2.6 | 2.6 | 0.00 | 0.02 | 0.02 | 68 | 1016.1 |
| 20260510195640 | 60 | 270 | 8.7 | 8.7 | 0.00 | 0.02 | 0.02 | 69 | 1015.9 |
| 20260510194640 | 60 | 270 | 8.7 | 8.7 | 0.00 | 0.02 | 0.02 | 69 | 1015.8 |
| 20260510193640 | 60 | 270 | 7.8 | 7.8 | 0.00 | 0.02 | 0.02 | 69 | 1015.7 |
| 20260510192640 | 60 | 248 | 9.6 | 9.6 | 0.00 | 0.02 | 0.02 | 67 | 1015.7 |
| 20260510191641 | 60 | 22 | 1.7 | 1.7 | 0.00 | 0.02 | 0.02 | 69 | 1015.6 |
| 20260510190641 | 60 | 248 | 5.2 | 5.2 | 0.00 | 0.02 | 0.02 | 67 | 1015.8 |
| 20260510184640 | 61 | 270 | 0.9 | 0.9 | 0.00 | 0.02 | 0.02 | 65 | 1015.7 |
| 20260510182642 | 61 | 270 | 2.6 | 2.6 | 0.00 | 0.02 | 0.02 | 67 | 1015.3 |
| 20260510181641 | 61 | 292 | 7.0 | 7.0 | 0.00 | 0.02 | 0.02 | 69 | 1015.3 |
| 20260510180641 | 61 | 315 | 7.0 | 7.0 | 0.00 | 0.02 | 0.02 | 69 | 1015.0 |
| 20260510173640 | 60 | 248 | 6.1 | 6.1 | 0.00 | 0.02 | 0.02 | 73 | 1014.5 |
| 20260510172639 | 60 | 270 | 4.3 | 4.3 | 0.00 | 0.05 | 0.02 | 77 | 1014.9 |
| 20260510170640 | 60 | 270 | 10.4 | 10.4 | 0.00 | 0.05 | 0.02 | 77 | 1014.5 |
| 20260510164641 | 59 | 248 | 4.3 | 4.3 | 0.00 | 0.05 | 0.02 | 79 | 1014.6 |
| 20260510163640 | 58 | 270 | 8.7 | 8.7 | 0.00 | 0.05 | 0.02 | 83 | 1014.4 |
| 20260510162641 | 58 | 248 | 13.0 | 13.0 | 0.00 | 0.05 | 0.02 | 85 | 1014.7 |
| 20260510161641 | 58 | 248 | 9.6 | 9.6 | 0.00 | 0.05 | 0.02 | 84 | 1014.6 |
| 20260510160640 | 62 | 315 | 14.8 | 14.8 | 0.00 | 0.05 | 0.02 | 84 | 1014.3 |
| 20260510154639 | 70 | 292 | 3.5 | 3.5 | 0.00 | 0.06 | 0.02 | 49 | 1013.7 |
| 20260510152640 | 68 | 248 | 7.0 | 7.0 | 0.00 | 0.06 | 0.02 | 52 | 1013.5 |
| 20260510151641 | 67 | 248 | 5.2 | 5.2 | 0.00 | 0.06 | 0.02 | 56 | 1013.5 |
| 20260510150640 | 67 | 158 | 5.2 | 5.2 | 0.00 | 0.06 | 0.02 | 60 | 1013.7 |
| 20260510144641 | 63 | 202 | 4.3 | 4.3 | 0.02 | 0.06 | 0.02 | 67 | 1014.0 |
| 20260510143640 | 60 | 270 | 9.6 | 9.6 | 0.02 | 0.06 | 0.02 | 87 | 1014.0 |
| 20260510142640 | 60 | 270 | 9.6 | 9.6 | 0.02 | 0.06 | 0.02 | 87 | 1014.0 |
| 20260510141640 | 60 | 270 | 5.2 | 5.2 | 0.02 | 0.06 | 0.02 | 88 | 1014.4 |
| 20260510140641 | 61 | 68 | 4.3 | 4.3 | 0.02 | 0.06 | 0.02 | 88 | 1014.6 |
| 20260510134642 | 61 | 292 | 5.2 | 5.2 | 0.00 | 0.05 | 0.00 | 81 | 1014.3 |
| 20260510132641 | 63 | 315 | 7.0 | 7.0 | 0.00 | 0.05 | 0.00 | 80 | 1014.4 |
| 20260510131640 | 66 | 248 | 3.5 | 3.5 | 0.00 | 0.05 | 0.00 | 74 | 1014.4 |
| 20260510124641 | 65 | 248 | 7.8 | 7.8 | 0.00 | 0.05 | 0.00 | 59 | 1014.7 |
| 20260510123641 | 65 | 225 | 7.0 | 7.0 | 0.00 | 0.05 | 0.00 | 59 | 1014.8 |
| 20260510122640 | 64 | 135 | 5.2 | 5.2 | 0.00 | 0.05 | 0.00 | 63 | 1014.8 |
| 20260510121640 | 64 | 135 | 5.2 | 5.2 | 0.00 | 0.05 | 0.00 | 63 | 1014.8 |
| 20260510120641 | 63 | 270 | 6.1 | 6.1 | 0.00 | 0.05 | 0.00 | 68 | 1014.9 |
| 20260510114641 | 68 | 225 | 10.4 | 10.4 | 0.00 | 0.05 | 0.00 | 63 | 1014.9 |
| 20260510113642 | 69 | 248 | 7.0 | 7.0 | 0.00 | 0.05 | 0.00 | 53 | 1014.7 |
| 20260510112640 | 69 | 248 | 7.0 | 7.0 | 0.00 | 0.05 | 0.00 | 47 | 1014.6 |
| 20260510111639 | 69 | 225 | 4.3 | 4.3 | 0.00 | 0.05 | 0.00 | 46 | 1014.5 |
| 20260510110640 | 70 | 248 | 6.1 | 6.1 | 0.00 | 0.05 | 0.00 | 47 | 1014.5 |
| 20260510105641 | 70 | 338 | 1.7 | 1.7 | 0.00 | 0.05 | 0.00 | 45 | 1014.8 |
| 20260510104641 | 68 | 248 | 5.2 | 5.2 | 0.00 | 0.05 | 0.00 | 47 | 1014.7 |
| 20260510103640 | 68 | 180 | 4.3 | 4.3 | 0.00 | 0.05 | 0.00 | 49 | 1014.6 |
| 20260510101640 | 68 | 270 | 4.3 | 4.3 | 0.00 | 0.05 | 0.00 | 49 | 1014.6 |
| 20260510100641 | 67 | 180 | 4.3 | 4.3 | 0.00 | 0.05 | 0.00 | 49 | 1014.6 |
| 20260510095640 | 66 | 225 | 4.3 | 4.3 | 0.00 | 0.05 | 0.00 | 51 | 1014.8 |
| 20260510094640 | 66 | 180 | 6.1 | 6.1 | 0.00 | 0.05 | 0.00 | 51 | 1014.8 |
| 20260510091639 | 67 | 135 | 4.3 | 4.3 | 0.00 | 0.05 | 0.00 | 49 | 1014.9 |
| 20260510085641 | 64 | 292 | 6.1 | 6.1 | 0.00 | 0.05 | 0.00 | 53 | 1014.8 |
| 20260510084642 | 63 | 225 | 2.6 | 2.6 | 0.00 | 0.05 | 0.00 | 54 | 1014.7 |
| 20260510083641 | 62 | 158 | 4.3 | 4.3 | 0.00 | 0.05 | 0.00 | 57 | 1014.8 |
| 20260510082641 | 61 | 270 | 5.2 | 5.2 | 0.00 | 0.05 | 0.00 | 58 | 1014.8 |
| 20260510080640 | 61 | 180 | 6.1 | 6.1 | 0.00 | 0.05 | 0.00 | 60 | 1014.9 |
| 20260510075640 | 60 | 248 | 3.5 | 3.5 | 0.00 | 0.05 | 0.00 | 60 | 1015.0 |
| 20260510074640 | 60 | 248 | 4.3 | 4.3 | 0.00 | 0.05 | 0.00 | 61 | 1015.0 |
| 20260510073641 | 60 | 135 | 4.3 | 4.3 | 0.00 | 0.05 | 0.00 | 62 | 1014.9 |
| 20260510072640 | 60 | 225 | 3.5 | 3.5 | 0.00 | 0.05 | 0.00 | 62 | 1014.9 |
| 20260510071640 | 60 | 158 | 2.6 | 2.6 | 0.00 | 0.05 | 0.00 | 63 | 1014.9 |
| 20260510070640 | 60 | 225 | 1.7 | 1.7 | 0.00 | 0.05 | 0.00 | 63 | 1014.8 |
| 20260510065641 | 59 | 248 | 8.7 | 8.7 | 0.00 | 0.05 | 0.00 | 63 | 1014.7 |
| 20260510064640 | 59 | 248 | 7.0 | 7.0 | 0.00 | 0.05 | 0.00 | 66 | 1014.8 |
| 20260510063640 | 60 | 248 | 7.0 | 7.0 | 0.00 | 0.05 | 0.00 | 66 | 1014.5 |
| 20260510062640 | 60 | 158 | 3.5 | 3.5 | 0.00 | 0.05 | 0.00 | 60 | 1014.5 |
| 20260510060640 | 59 | 248 | 4.3 | 4.3 | 0.00 | 0.05 | 0.00 | 62 | 1014.5 |
| 20260510054640 | 57 | 202 | 4.3 | 4.3 | 0.00 | 0.05 | 0.00 | 64 | 1014.3 |
| 20260510052640 | 57 | 202 | 1.7 | 1.7 | 0.00 | 0.05 | 0.00 | 66 | 1014.0 |
| 20260510051640 | 56 | 202 | 2.6 | 2.6 | 0.00 | 0.05 | 0.00 | 66 | 1014.1 |
| 20260510045641 | 56 | 158 | 3.5 | 3.5 | 0.00 | 0.05 | 0.00 | 68 | 1014.0 |
| 20260510044641 | 56 | 158 | 2.6 | 2.6 | 0.00 | 0.05 | 0.00 | 67 | 1014.0 |
| 20260510040640 | 54 | 158 | 3.5 | 3.5 | 0.00 | 0.05 | 0.00 | 71 | 1014.4 |
| 20260510035641 | 55 | 135 | 1.7 | 1.7 | 0.00 | 0.05 | 0.00 | 71 | 1014.4 |
| 20260510033639 | 55 | 202 | 1.7 | 1.7 | 0.00 | 0.06 | 0.00 | 70 | 1014.5 |
| 20260510032640 | 57 | 225 | 1.7 | 1.7 | 0.00 | 0.06 | 0.00 | 68 | 1014.6 |
| 20260510031641 | 56 | 225 | 1.7 | 1.7 | 0.00 | 0.06 | 0.00 | 64 | 1014.6 |
| 20260510030640 | 54 | 180 | 1.7 | 1.7 | 0.00 | 0.06 | 0.00 | 70 | 1014.6 |
| 20260510025640 | 54 | 112 | 1.7 | 1.7 | 0.00 | 0.06 | 0.00 | 78 | 1014.4 |
| 20260510024641 | 55 | 180 | 0.0 | 0.0 | 0.00 | 0.06 | 0.00 | 77 | 1014.5 |
| 20260510023640 | 55 | 202 | 1.7 | 1.7 | 0.00 | 0.06 | 0.00 | 74 | 1014.6 |
| 20260510022640 | 55 | 270 | 2.6 | 2.6 | 0.00 | 0.06 | 0.00 | 82 | 1014.5 |
| 20260510021642 | 57 | 270 | 3.5 | 3.5 | 0.00 | 0.06 | 0.00 | 78 | 1014.6 |
| 20260510014641 | 55 | 202 | 1.7 | 1.7 | 0.00 | 0.06 | 0.00 | 72 | 1014.7 |
| 20260510013640 | 56 | 158 | 1.7 | 1.7 | 0.00 | 0.06 | 0.00 | 76 | 1014.8 |
| 20260510012640 | 56 | 180 | 1.7 | 1.7 | 0.00 | 0.06 | 0.00 | 76 | 1014.8 |
| 20260510011640 | 57 | 202 | 0.0 | 0.0 | 0.00 | 0.06 | 0.00 | 69 | 1014.9 |
| 20260510010640 | 57 | 225 | 2.6 | 2.6 | 0.00 | 0.06 | 0.00 | 68 | 1014.9 |
| 20260510005640 | 55 | 180 | 0.0 | 0.0 | 0.00 | 0.06 | 0.00 | 72 | 1015.1 |
| 20260510004641 | 54 | 202 | 1.7 | 1.7 | 0.00 | 0.06 | 0.00 | 84 | 1015.2 |
| 20260510003641 | 54 | 112 | 2.6 | 2.6 | 0.00 | 0.06 | 0.00 | 86 | 1015.2 |
| 20260510002640 | 54 | 112 | 1.7 | 1.7 | 0.00 | 0.06 | 0.00 | 87 | 1015.3 |
| 20260510001640 | 54 | 112 | 1.7 | 1.7 | 0.00 | 0.06 | 0.00 | 87 | 1015.4 |
| 20260509235642 | 54 | 112 | 2.6 | 2.6 | 0.06 | 0.06 | 0.06 | 88 | 1015.3 |
| 20260509234641 | 55 | 112 | 3.5 | 3.5 | 0.06 | 0.06 | 0.06 | 86 | 1015.4 |
| 20260509233642 | 56 | 112 | 4.3 | 4.3 | 0.06 | 0.06 | 0.06 | 84 | 1015.3 |
| 20260509232640 | 56 | 180 | 1.7 | 1.7 | 0.06 | 0.06 | 0.06 | 81 | 1015.5 |
| 20260509231640 | 57 | 292 | 2.6 | 2.6 | 0.06 | 0.06 | 0.06 | 80 | 1015.6 |
| 20260509230640 | 58 | 135 | 2.6 | 2.6 | 0.06 | 0.06 | 0.06 | 77 | 1015.5 |
| 20260509225642 | 60 | 248 | 0.0 | 0.0 | 0.00 | 0.00 | 0.00 | 67 | 1015.5 |
| 20260509224640 | 58 | 225 | 1.7 | 1.7 | 0.00 | 0.06 | 0.06 | 64 | 1015.5 |
| 20260509223640 | 57 | 248 | 2.6 | 2.6 | 0.00 | 0.06 | 0.06 | 76 | 1015.5 |
| 20260509222641 | 58 | 270 | 1.7 | 1.7 | 0.00 | 0.06 | 0.06 | 77 | 1015.5 |
| 20260509221640 | 58 | 292 | 2.6 | 2.6 | 0.00 | 0.06 | 0.06 | 78 | 1015.6 |
| 20260509220641 | 59 | 270 | 3.5 | 3.5 | 0.00 | 0.06 | 0.06 | 74 | 1015.5 |
| 20260509215640 | 61 | 315 | 1.7 | 1.7 | 0.00 | 0.00 | 0.00 | 70 | 1015.4 |
| 20260509214640 | 61 | 225 | 4.3 | 4.3 | 0.00 | 0.06 | 0.06 | 60 | 1015.3 |
| 20260509212640 | 62 | 248 | 1.7 | 1.7 | 0.00 | 0.06 | 0.06 | 57 | 1015.2 |
| 20260509211640 | 62 | 248 | 4.3 | 4.3 | 0.00 | 0.06 | 0.06 | 57 | 1015.2 |